This is the latest recevied weather packets stored in our database for station/object SV5DDT-12. If no packets are shown the sender has not sent any weather packets the latest 10 day(s).
| Time | Temp. | Humidity | Pressure | Rain* | Wind** | Luminosity | Snow |
|---|---|---|---|---|---|---|---|
| 1777471194 | 22.78° C | 45% | 1014.6 hPa | - | - | - | - |
| 1777470294 | 22.78° C | 44% | 1014.6 hPa | - | - | - | - |
| 1777469394 | 22.78° C | 43% | 1014.6 hPa | - | - | - | - |
| 1777468494 | 22.78° C | 45% | 1014.6 hPa | - | - | - | - |
| 1777467593 | 22.78° C | 45% | 1014.8 hPa | - | - | - | - |
| 1777466694 | 22.78° C | 46% | 1014.9 hPa | - | - | - | - |
| 1777465793 | 22.78° C | 52% | 1014.9 hPa | - | - | - | - |
| 1777464893 | 22.78° C | 47% | 1015.1 hPa | - | - | - | - |
| 1777463993 | 22.78° C | 47% | 1015 hPa | - | - | - | - |
| 1777463093 | 22.78° C | 45% | 1015 hPa | - | - | - | - |
| 1777462193 | 22.78° C | 46% | 1015 hPa | - | - | - | - |
| 1777461293 | 22.78° C | 49% | 1015 hPa | - | - | - | - |
| 1777460393 | 22.78° C | 48% | 1015.2 hPa | - | - | - | - |
| 1777459493 | 22.78° C | 51% | 1015.3 hPa | - | - | - | - |
| 1777458592 | 22.78° C | 52% | 1015.3 hPa | - | - | - | - |
| 1777457692 | 22.78° C | 53% | 1015.2 hPa | - | - | - | - |
| 1777456792 | 22.78° C | 54% | 1015.2 hPa | - | - | - | - |
| 1777455892 | 22.78° C | 57% | 1015.4 hPa | - | - | - | - |
| 1777454992 | 22.78° C | 58% | 1015.4 hPa | - | - | - | - |
| 1777454092 | 22.78° C | 54% | 1015.4 hPa | - | - | - | - |
| 1777453192 | 22.78° C | 55% | 1015.4 hPa | - | - | - | - |
| 1777452291 | 22.78° C | 56% | 1015.4 hPa | - | - | - | - |
| 1777451391 | 22.78° C | 56% | 1015.5 hPa | - | - | - | - |
| 1777450491 | 22.78° C | 57% | 1015.6 hPa | - | - | - | - |
| 1777449591 | 22.78° C | 57% | 1015.5 hPa | - | - | - | - |
* Rain since midnight (hover to see other rain measurements)
** Current wind speed in m/s (hover to see current wind gust speed)